Weather History for KLWC - June, 2013

Change the Weather History Date:

Saturday, June 22, 2013

  Actual Average Record
Temperature  
Mean Temperature 86 °F 76 °F  
Max Temperature 95 °F 86 °F - ()
Min Temperature 77 °F 65 °F - ()
Degree Days  
Heating Degree Days 0 0  
Month to date heating degree days 13 6  
Since 1 June heating degree days 13 6  
Since 1 July heating degree days 5283 5090  
Cooling Degree Days 21 11  
Month to date cooling degree days 193 184  
Year to date cooling degree days 320 303  
Since 1 June cooling degree days 193 184  
Growing Degree Days 36 (Base 50)    
Moisture  
Dew Point 68 °F    
Average Humidity 57    
Maximum Humidity 69    
Minimum Humidity 44    
Precipitation  
Precipitation 0.00 in 0.16 in - ()
Month to date precipitation 0.78 4.24  
Year to date precipitation 15.09 18.13  
Sea Level Pressure  
Sea Level Pressure 29.90 in    
Wind  
Wind Speed 13 mph (South)    
Max Wind Speed 26 mph    
Max Gust Speed 36 mph    
Visibility 10 miles    
Events      
T = Trace of Precipitation, MM = Missing Value Source: NWS Daily Summary

Daily Weather History Graph

Daily Weather History Graph

Search for Another Location

Airport or City:

Trip Planner

Search our weather history database for the weather conditions in past years. The results will help you decide how hot, cold, wet, or windy it might be!

Date:

Astronomy

Jun. 22, 2013 Rise Set
Actual Time 5:55 AM CDT 8:50 PM CDT
Civil Twilight 5:23 AM CDT 9:22 PM CDT
Nautical Twilight 4:42 AM CDT 10:02 PM CDT
Astronomical Twilight 3:56 AM CDT 10:49 PM CDT
Moon 8:06 PM CDT (6/22) 5:08 AM CDT (6/22)
Length of Visible Light 15h 58m
Length of Day
14h 54m
Waxing Gibbous, 99% of the Moon is Illuminated
Jun 22
Waxing Gibbous
Jun 23
Full
Jun 29
Last Quarter
Jul 8
New
Jul 15
First Quarter

Hourly Weather History & Observations

Time (CDT) Temp. Heat Index Dew Point Humidity Pressure Visibility Wind Dir Wind Speed Gust Speed Precip Events Conditions
12:52 AM 79.0 °F - 66.0 °F 64% 29.92 in 10.0 mi South 10.4 mph - N/A   Clear
1:52 AM 81.0 °F 83.0 °F 66.0 °F 60% 29.89 in 10.0 mi South 16.1 mph 23.0 mph N/A   Clear
2:52 AM 79.0 °F - 66.9 °F 66% 29.90 in 10.0 mi South 11.5 mph 18.4 mph N/A   Clear
3:52 AM 78.1 °F - 66.0 °F 66% 29.92 in 10.0 mi SSW 11.5 mph - N/A   Clear
4:52 AM 78.1 °F - 66.9 °F 68% 29.91 in 10.0 mi SW 10.4 mph - N/A   Clear
5:52 AM 78.1 °F - 66.9 °F 68% 29.90 in 10.0 mi SSW 11.5 mph 19.6 mph N/A   Clear
6:52 AM 78.1 °F - 66.9 °F 68% 29.92 in 10.0 mi South 4.6 mph - N/A   Clear
7:52 AM 80.1 °F 82.9 °F 69.1 °F 69% 29.94 in 10.0 mi SE 4.6 mph - N/A   Clear
8:52 AM 82.9 °F 86.5 °F 69.1 °F 63% 29.94 in 10.0 mi South 12.7 mph - N/A   Clear
9:52 AM 84.9 °F 88.8 °F 69.1 °F 59% 29.93 in 10.0 mi South 13.8 mph 19.6 mph N/A   Clear
10:52 AM 87.1 °F 91.3 °F 69.1 °F 55% 29.94 in 10.0 mi South 11.5 mph 20.7 mph N/A   Clear
11:52 AM 91.0 °F 96.6 °F 70.0 °F 50% 29.96 in 10.0 mi South 12.7 mph 20.7 mph N/A   Clear
12:52 PM 91.9 °F 97.4 °F 70.0 °F 48% 29.95 in 10.0 mi South 15.0 mph 23.0 mph N/A   Clear
1:52 PM 93.9 °F 100.3 °F 70.0 °F 46% 29.93 in 10.0 mi South 18.4 mph 24.2 mph N/A   Clear
2:52 PM 91.9 °F 95.9 °F 68.0 °F 45% 29.91 in 10.0 mi South 12.7 mph 25.3 mph N/A   Scattered Clouds
3:52 PM 93.9 °F 98.6 °F 68.0 °F 43% 29.84 in 10.0 mi South 23.0 mph 32.2 mph N/A   Clear
4:52 PM 91.0 °F 93.8 °F 66.0 °F 44% 29.83 in 10.0 mi South 19.6 mph 34.5 mph N/A   Clear
5:52 PM 90.0 °F 92.8 °F 66.9 °F 46% 29.83 in 10.0 mi South 20.7 mph 28.8 mph N/A   Clear
6:52 PM 88.0 °F 90.7 °F 66.9 °F 49% 29.83 in 10.0 mi South 16.1 mph 24.2 mph N/A   Clear
7:52 PM 86.0 °F 90.1 °F 69.1 °F 57% 29.85 in 10.0 mi SSE 13.8 mph 23.0 mph N/A   Clear
8:52 PM 82.9 °F 87.0 °F 70.0 °F 65% 29.85 in 10.0 mi SSE 10.4 mph - N/A   Clear
9:52 PM 81.0 °F 84.4 °F 70.0 °F 69% 29.87 in 10.0 mi SSE 9.2 mph - N/A   Clear
10:52 PM 81.0 °F 84.4 °F 70.0 °F 69% 29.88 in 10.0 mi SSE 9.2 mph - N/A   Clear
11:52 PM 80.1 °F 82.9 °F 69.1 °F 69% 29.89 in 10.0 mi SSE 12.7 mph - N/A   Clear